EHI
17 15 13 11 9 8 8 6 4 4 5 4 2 1 2 3 3 3 5 9 12 11 10 8 7 5 3 1 1 2 2 2 1 0 0 0 0 0 0 0 0 0 0
18 16 12 11 10 10 8 6 4 5 6 6 4 3 3 4 3 3 4 7 9 10 9 8 6 5 4 3 1 1 1 1 0 0 0 0 0 0 0 0 0 0 0
19 16 12 11 11 11 9 6 5 6 6 7 7 5 4 5 4 3 3 4 6 7 7 6 4 3 3 3 2 1 1 1 1 0 0 0 0 0 0 0 0 0 0
19 16 12 10 10 10 9 6 5 5 4 5 7 6 5 4 4 3 3 3 3 4 4 3 3 2 1 1 1 2 2 3 3 1 1 1 1 1 0 0 0 0 0
17 15 12 10 9 9 8 6 4 4 4 4 5 5 4 3 2 1 2 2 2 2 2 2 2 2 1 0 0 2 3 5 4 3 2 2 2 2 1 0 0 0 0
13 13 12 10 9 8 7 5 4 4 4 3 4 4 3 3 2 1 1 1 1 1 1 1 1 1 1 2 2 2 4 5 5 4 3 3 3 3 1 1 1 0 0
10 10 10 11 10 8 6 5 4 4 4 4 3 3 2 2 2 1 0 0 0 0 0 0 1 1 2 3 3 3 4 4 5 4 3 3 3 3 3 2 2 1 0
10 9 10 10 10 8 6 5 4 3 4 4 3 2 2 2 2 1 0 1 1 1 1 1 1 2 3 3 2 3 4 4 4 5 4 4 3 3 3 3 2 1 0
12 11 11 10 9 8 7 6 5 4 4 4 4 3 3 3 4 2 2 3 3 3 3 2 3 4 4 3 1 2 3 2 2 4 5 4 4 3 3 3 1 0 0
13 14 13 12 10 9 8 7 6 6 5 4 4 4 4 5 5 4 3 3 3 3 3 3 3 4 4 4 3 2 2 1 0 2 3 3 3 3 3 2 1 0 0
14 14 15 15 14 11 10 10 9 8 7 5 5 6 6 6 5 4 3 3 3 3 4 5 6 5 6 7 6 3 1 0 0 0 1 2 2 3 3 2 1 0 0
14 14 16 18 17 13 11 12 13 11 9 8 8 8 7 6 5 4 3 3 4 4 4 7 9 8 8 9 7 3 0 0 0 0 0 0 1 2 2 1 0 0 0
13 14 17 19 18 14 12 13 14 13 11 11 9 7 6 5 4 4 4 3 3 4 4 6 9 9 8 8 7 4 1 0 0 0 0 0 0 1 1 0 0 0 0
13 15 17 18 18 15 14 14 15 13 12 11 8 6 5 4 4 4 4 4 3 3 4 4 6 6 7 7 6 4 2 1 0 0 0 0 0 0 0 0 0 0 0
14 16 17 17 18 18 16 16 15 13 13 11 7 6 7 6 5 4 4 4 4 3 2 2 2 3 4 5 5 4 4 2 1 0 0 0 0 0 0 0 0 0 0
14 17 17 16 18 19 18 16 14 12 11 9 7 7 8 8 6 4 4 4 4 2 1 1 1 1 2 3 3 5 5 4 2 1 0 0 0 0 0 0 0 0 0
14 15 15 15 16 17 17 15 11 9 8 7 6 6 7 7 6 4 3 2 1 1 0 0 0 1 3 4 6 7 7 5 4 2 1 0 0 0 0 0 0 0 0
12 13 13 13 13 13 14 12 9 8 7 6 5 6 5 4 4 3 1 0 0 0 0 0 0 1 3 5 8 9 7 6 4 3 1 0 0 0 0 0 0 0 0
11 12 13 13 11 11 12 11 10 9 8 7 6 4 2 2 3 2 1 1 1 0 0 0 0 0 1 2 5 7 6 6 5 3 1 0 0 0 0 0 0 0 0
11 12 13 13 11 11 12 11 10 9 9 9 6 3 1 2 2 2 1 1 1 0 0 0 0 0 0 0 1 3 3 4 4 4 2 1 1 1 0 0 0 0 0
9 10 11 11 10 10 10 9 8 8 9 9 7 4 3 1 1 1 0 1 1 0 1 1 0 0 0 0 0 1 1 1 2 3 2 2 2 2 1 1 0 0 0
9 9 10 10 9 8 6 5 6 8 8 8 7 6 4 1 0 0 0 0 0 0 1 1 0 0 0 0 0 0 0 0 1 1 1 2 2 2 2 1 0 0 0
10 10 10 9 8 5 3 2 3 6 7 8 7 7 6 2 0 0 0 0 0 0 1 1 0 0 1 1 1 0 0 0 0 0 1 1 1 1 1 1 0 0 0
12 12 11 8 6 4 2 1 1 4 6 6 6 8 7 4 1 0 0 0 0 0 0 0 0 0 1 1 1 0 0 0 0 0 1 0 0 1 1 1 0 0 0
12 11 9 7 5 3 1 0 1 3 4 4 5 7 6 4 2 1 0 0 0 1 1 0 0 0 0 0 0 0 0 0 0 0 0 0 0 1 1 1 0 0 0
10 9 7 5 5 3 1 0 1 2 3 4 5 5 4 3 2 1 0 0 1 2 2 1 0 0 0 0 0 0 0 0 0 0 0 0 0 0 1 1 0 0 0
Wind_Speed
2 2 2 2 2 2 2 2 1 1 1 2 2 2 2 3 4 4 4 8 8 7 7 6 5 5 4 4 4 4 4 5 5 5 6 6 6 6 6 5 6 6 5
2 2 3 2 2 2 2 2 2 1 1 1 1 2 2 2 4 3 4 5 7 7 7 6 5 5 4 4 4 4 4 4 4 5 5 5 6 6 6 6 6 6 6
3 2 2 2 2 2 3 2 2 1 1 1 1 1 1 1 3 3 3 3 4 6 7 6 6 5 5 4 4 4 4 4 4 4 5 5 6 6 6 6 6 6 6
4 2 3 3 2 2 2 2 2 1 1 1 1 0 1 2 2 3 3 3 3 4 6 7 7 6 5 5 4 4 4 5 5 5 5 5 5 6 6 5 6 6 6
4 3 2 3 3 2 2 2 2 1 1 1 1 1 1 1 2 2 2 2 3 3 4 6 8 8 7 6 5 5 4 5 5 5 5 5 5 6 6 6 6 6 6
4 3 3 3 2 2 2 2 2 1 1 1 1 1 1 2 2 2 2 2 3 3 4 5 5 5 7 7 7 6 5 5 5 5 5 6 5 5 6 6 6 6 6
4 3 3 3 2 2 2 3 2 2 1 1 0 1 2 3 2 2 2 2 2 3 3 4 4 3 4 7 7 7 6 6 6 6 6 5 5 5 5 6 6 6 6
4 4 4 3 2 2 2 2 1 1 1 2 1 1 1 1 1 3 2 3 3 2 3 4 4 4 3 3 5 7 6 6 6 6 6 5 5 5 6 6 6 7 7
4 3 4 4 3 3 2 2 2 2 1 2 1 1 1 1 1 2 3 2 2 2 2 2 3 4 4 3 4 7 7 6 6 6 6 6 6 6 6 6 6 7 7
5 4 4 4 3 2 3 3 2 1 2 2 1 1 1 0 0 0 1 2 3 3 2 2 2 3 3 3 4 7 8 7 6 6 6 6 6 7 7 6 6 7 7
4 4 4 4 3 2 2 2 2 2 1 2 1 1 2 2 2 1 1 1 1 2 3 2 2 2 3 4 4 6 8 7 6 6 7 7 8 8 8 8 8 7 8
3 4 5 4 3 2 2 2 2 2 1 1 1 2 1 1 2 1 2 2 2 2 2 2 2 2 2 3 4 7 8 8 7 7 6 7 8 8 8 8 9 8 8
3 4 4 4 3 3 3 2 2 2 2 2 2 2 2 2 2 1 1 2 2 2 2 2 2 2 2 2 3 7 8 8 8 7 7 7 7 8 8 8 9 9 9
4 5 4 4 4 4 4 3 3 3 3 3 4 3 3 3 2 2 1 1 2 2 2 2 1 1 1 2 3 5 5 8 8 8 7 7 7 8 8 8 8 9 9
4 6 5 4 4 4 4 3 3 3 3 4 3 3 3 2 2 2 2 2 2 2 3 2 1 1 1 2 3 3 3 7 8 8 8 8 8 8 9 9 9 9 9
3 5 5 4 4 4 4 4 3 4 4 3 3 4 3 2 2 2 2 2 2 2 2 2 1 1 0 1 2 2 2 6 8 9 9 10 10 9 9 9 9 9 9
4 5 5 6 5 5 5 4 4 4 4 4 4 4 3 3 2 2 2 2 2 1 3 2 1 1 1 2 2 2 3 3 5 9 10 10 10 10 9 9 9 8 8
3 4 4 5 5 5 4 4 5 4 4 4 4 4 4 3 3 3 3 3 2 2 3 3 2 2 2 3 3 3 3 3 3 7 10 11 10 10 10 9 9 9 9
3 3 4 4 4 4 4 4 4 4 4 4 4 3 3 3 3 3 3 3 3 3 2 3 3 2 2 2 2 3 3 2 3 5 8 9 10 10 10 9 9 9 9
3 3 3 4 4 3 3 3 3 3 4 3 3 2 3 3 4 3 4 3 3 3 3 3 3 2 2 2 2 2 2 2 2 3 4 5 8 10 11 10 10 10 9
3 3 3 3 3 3 3 3 3 4 3 3 3 3 3 3 3 3 4 3 3 3 3 3 3 2 2 1 2 2 2 2 3 3 2 3 4 4 6 9 11 11 11
1 2 2 3 3 3 2 1 2 2 3 3 3 3 4 4 4 4 5 4 4 3 3 3 3 3 3 2 1 2 2 2 3 2 2 3 3 4 5 6 10 12 13
2 1 2 2 2 2 2 2 2 3 3 3 3 3 5 5 4 3 4 5 5 6 6 4 5 4 3 2 2 3 2 3 4 3 2 4 3 4 4 5 11 13 13
1 2 2 3 3 3 4 4 4 4 4 4 4 4 4 3 4 3 3 4 4 4 6 6 5 5 4 3 3 4 4 4 4 4 3 4 3 3 3 3 9 12 12
1 2 2 3 3 3 5 5 4 3 3 5 5 5 5 5 5 4 4 4 4 4 5 6 6 6 6 6 4 2 3 3 4 3 2 3 3 3 3 3 5 11 12
2 2 2 2 3 3 5 6 5 4 4 4 4 4 5 5 5 5 4 4 4 4 4 4 4 6 7 7 8 6 5 4 4 3 2 2 2 2 3 2 2 4 6
Wind_Direction
156 148 142 148 157 144 148 151 137 125 154 167 181 131 99 108 114 114 126 140 140 140 141 141 138 133 132 131 136 139 141 149 156 160 163 165 161 158 158 158 160 158 154
143 147 141 141 131 131 133 136 123 133 131 112 94 96 99 107 111 115 129 146 152 152 153 154 151 148 148 147 144 145 147 152 164 172 170 167 170 170 168 170 172 172 168
140 151 145 145 138 127 124 126 123 141 156 138 107 109 115 104 117 133 150 158 160 164 165 165 164 162 164 164 161 164 169 171 169 172 180 185 183 181 181 181 179 179 173
143 153 152 143 145 146 148 147 167 165 130 112 130 176 140 135 157 170 176 172 165 163 172 177 177 174 177 180 180 184 190 187 187 187 187 191 192 188 187 185 182 181 178
156 159 142 135 159 150 152 174 142 130 138 160 192 192 184 170 182 188 173 170 163 162 164 174 181 187 191 194 194 196 199 196 195 196 194 193 192 193 193 193 190 190 189
154 156 140 142 160 149 142 115 119 129 170 204 236 177 188 200 192 171 183 175 175 175 167 166 179 196 197 197 201 203 205 208 202 202 201 200 196 191 193 191 192 195 198
153 156 143 151 167 155 149 146 149 168 184 165 251 237 231 207 180 181 193 186 192 182 168 170 179 183 188 199 200 203 207 209 206 206 206 201 195 190 194 196 196 198 201
161 167 157 159 157 154 158 160 149 177 195 186 214 215 221 202 222 209 191 203 203 193 189 191 177 176 179 170 187 189 197 203 204 205 207 199 191 190 196 201 205 206 206
169 164 159 160 167 168 158 176 174 196 216 204 201 256 250 202 215 209 214 207 185 211 219 192 182 170 173 165 167 183 187 194 207 209 205 200 200 199 201 207 211 211 213
168 167 159 163 171 169 162 186 175 213 217 236 197 209 250 2 230 243 254 215 199 211 227 237 194 174 173 165 168 171 183 196 206 213 213 210 208 208 210 217 222 223 223
172 167 156 152 159 170 160 170 156 200 217 245 249 235 237 234 236 216 245 232 232 225 217 209 204 186 180 175 172 171 179 188 199 214 219 219 217 216 217 223 228 233 234
172 170 162 156 164 172 170 173 173 195 219 252 273 277 254 242 238 229 238 230 231 233 217 202 199 195 188 176 172 169 178 184 194 205 214 220 219 219 223 227 230 235 240
173 173 168 164 173 179 184 176 191 210 213 229 255 269 274 274 273 261 243 255 266 267 236 220 199 191 182 158 159 169 178 186 193 198 204 212 218 223 228 231 233 236 241
171 161 165 171 179 181 192 184 201 212 211 223 242 254 271 275 278 272 249 256 274 270 266 250 202 172 168 147 164 178 179 189 193 197 203 209 218 225 230 232 235 236 240
163 159 173 180 186 192 197 192 207 222 207 216 235 240 248 261 266 274 258 235 239 265 261 259 227 175 175 162 163 193 194 197 201 202 204 210 217 223 227 231 234 235 237
160 159 173 187 196 203 205 210 210 220 221 223 232 242 246 253 258 261 257 258 246 244 258 249 247 208 179 231 167 197 220 211 209 208 208 212 215 219 223 227 230 234 239
171 171 182 191 199 205 206 210 223 226 226 226 237 241 242 262 269 278 272 264 260 251 258 266 244 218 214 231 198 222 230 213 209 211 208 209 210 214 218 222 225 230 236
186 187 191 191 202 207 203 207 222 227 229 230 236 239 244 250 250 266 277 276 271 261 251 259 251 242 239 219 211 227 244 229 212 210 210 209 211 214 216 219 223 227 229
199 203 195 198 211 213 205 206 218 226 230 233 230 232 239 250 257 257 261 265 266 265 249 250 256 246 243 238 225 241 249 254 244 210 210 210 213 215 214 215 221 224 225
201 210 210 206 214 219 220 216 221 229 234 237 236 233 239 242 250 258 261 260 266 269 261 254 248 246 243 237 220 240 257 249 256 247 228 209 212 215 213 213 217 220 222
213 206 211 215 217 220 229 218 226 235 232 239 242 235 241 245 251 254 266 273 275 273 271 268 261 255 249 249 241 248 259 263 254 241 241 223 210 213 214 219 220 219 219
222 205 213 225 226 237 214 207 226 246 237 230 237 240 241 234 230 231 240 245 252 259 272 272 273 263 258 260 266 269 271 280 275 245 246 256 230 221 212 208 212 212 218
212 219 220 221 225 210 183 202 230 236 248 239 237 240 251 246 227 225 231 238 241 246 243 244 262 269 269 263 261 270 265 266 268 264 269 268 251 247 230 219 204 207 212
217 229 233 222 220 220 207 212 222 230 243 247 246 243 248 249 253 247 248 244 242 247 242 237 241 251 257 260 243 245 253 262 266 257 239 257 258 253 251 227 204 202 209
231 240 237 228 223 219 211 214 219 235 241 247 246 241 237 237 232 234 244 250 253 255 252 245 230 232 240 246 244 252 255 257 270 265 237 237 254 262 244 232 216 206 211
243 251 247 237 225 221 214 214 222 247 245 252 252 243 239 234 220 218 233 244 253 263 275 265 248 242 239 238 229 222 233 244 260 264 242 241 254 267 272 239 221 204 216